Other Public Products
Issued by NWS Charleston, SC

Current Version | Previous Version | Text Only | Print | Product List | Glossary Off
Versions: 1 2 3 4 5 6 7 8 9 10 11 12 13 14 15 16 17 18 19 20 21 22 23 24 25 26 27 28 29 30 31 32 33 34 35 36 37 38 39 40 41 42 43 44 45 46 47 48 49 50

708
FPUS82 KCHS 200227
OPUCHS

TEST...KCHS/KSAV Gateway Observations...TEST
National Weather Service Charleston SC
900 PM EST MON FEB 19 2018

NOTE: "fair" indicates few or no clouds below 12,000 feet with no
significant weather and/or obstructions to visibility.

SCZ050-WAZ558-NCZ071-TXZ119-213-PAZ071-DCZ001-FLZ074-172-MI076-
NYZ176-178-MAZ016-IL014-TNZ027-NJZ106-GAZ044-MD014-200300-

...Gateway Observations for Charleston International...

CITY           SKY/WX    TMP DP  RH WIND       PRES   REMARKS
Chas Airport   FAIR      65  63  93 E3        30.38R
Seattle        PTCLDY    32  12  43 N3        30.19F
Charlotte      CLOUDY    54  54 100 NE5       30.41R FOG
Dallas DFW     LGT RAIN  75  63  66 S26G35    29.79R
Dallas Love    LGT RAIN  74  62  66 S24G33    29.81R
Philladelphia  CLOUDY    48  47  96 W3        30.35S FOG
Wash National  CLOUDY    48  47  96 S7        30.36S
Baltimore      FOG       44  44 100 CALM      30.35R VSB 3/4
Miami          MOCLDY    78  70  76 E20       30.25R
Detroit        LGT RAIN  58  54  86 SW30G41   29.97R
Newark         DRZL/FOG  46  46 100 CALM      30.34F VSB 1
Laguardia      FOG       47  44  90 SE6       30.33F VSB 1
J F K          CLOUDY    44  44 100 S7        30.36S
Boston Logan   LGT RAIN  48  45  89 SW18      30.31S
Ft. Lauderdale CLOUDY    77  71  82 E23       30.25R
Chicago O`Hare LGT RAIN  58  55  90 S16G26    29.80F
Chicago Midway LGT RAIN  58  56  93 S14G24    29.83F
Houston Bush   CLOUDY    72  69  90 SE17      29.96S
Houston Hobby  CLOUDY    72  71  97 S13       29.96R
Nashville      MOCLDY    67  55  65 S8        30.15S
Atlanta        MOCLDY    61  61 100 E10       30.31R

$$

GAZ044-118-TXZ119-213-NCZ071-DCZ001-MDZ014-506-PAZ021-071-NJZ106-
NYZ176-178-MAZ106-OHZ011-021-055-MIZ076-KYZ091-ILZ014-INZ047-
MNZ060-ONZ431-200300-

...Gateway Observations for Savannah International...

CITY           SKY/WX    TMP DP  RH WIND       PRES   REMARKS
Savannah Arpt  FAIR      64  62  93 E5        30.36R
Atlanta        MOCLDY    61  61 100 E10       30.31R
Charlotte      CLOUDY    54  54 100 NE5       30.41R FOG
Dallas DFW     LGT RAIN  75  63  66 S26G35    29.79R
Houston Bush   CLOUDY    72  69  90 SE17      29.96S
Wash National  CLOUDY    48  47  96 S7        30.36S
Wash Dulles    CLOUDY    47  46  97 S6        30.34S
Baltimore      FOG       44  44 100 CALM      30.35R VSB 3/4
Philadelphia   CLOUDY    48  47  96 W3        30.35S FOG
Newark         DRZL/FOG  46  46 100 CALM      30.34F VSB 1
Laguardia      FOG       47  44  90 SE6       30.33F VSB 1
J F K          CLOUDY    44  44 100 S7        30.36S
Boston         LGT RAIN  48  45  89 SW18      30.31S
Pittsburg      MOCLDY    63  54  72 S9        30.12S
Akron          CLOUDY    62  54  74 S16       30.08R
Cleveland      MOCLDY    64  57  78 S17G25    30.04R
Cincinnati     MOCLDY    66  56  70 S14       30.08S
Columbus       FAIR      64  56  76 S14       30.09S
Detroit        LGT RAIN  58  54  86 SW30G41   29.97R
Chicago O`Hare LGT RAIN  58  55  90 S16G26    29.80F
Minneapolis    FRZ DRZL  21  20  96 NE14      29.90F FOG     WCI   8
Indianapolis   CLOUDY    60  56  86 S10       29.98F
Toronto Canada LGT RAIN  37  37 100 NE2       30.00R

$$




USA.gov is the U.S. government's official web portal to all federal, state and local government web resources and services.